Weather History for Montgomery, NY

Change the Weather History Date:

Saturday, November 3, 2012

  Actual Average (KPOU) Record (KPOU)
Temperature  
Mean Temperature 44 °F 45 °F  
Max Temperature 50 °F 57 °F 77 °F (2003)
Min Temperature 39 °F 34 °F 21 °F (1980)
Degree Days  
Heating Degree Days 22 20  
Month to date heating degree days 58  
Since 1 July heating degree days 634  
Cooling Degree Days 0 0  
Month to date cooling degree days 0  
Year to date cooling degree days 672  
Moisture  
Dew Point 30 °F    
Average Humidity 61    
Maximum Humidity 73    
Minimum Humidity 48    
Precipitation  
Precipitation 0.00 in 0.12 in 1.62 in (1979)
Month to date precipitation 0.36  
Year to date precipitation 39.89  
Sea Level Pressure  
Sea Level Pressure 29.84 in    
Wind  
Wind Speed 10 mph (NW)    
Max Wind Speed 17 mph    
Max Gust Speed 25 mph    
Visibility 10 miles    
Events      
T = Trace of Precipitation, MM = Missing Value Source: NWS Daily Summary

Daily Weather History Graph

Daily Weather History Graph

Search for Another Location

Airport:

Trip Planner

Search our weather history database for the weather conditions in past years. The results will help you decide how hot, cold, wet, or windy it might be!

Date:

Astronomy

Nov. 03, 2012 Rise Set
Actual Time 7:31 AM EDT 5:48 PM EDT
Civil Twilight 7:02 AM EDT 6:17 PM EDT
Nautical Twilight 6:29 AM EDT 6:50 PM EDT
Astronomical Twilight 5:57 AM EDT 7:22 PM EDT
Moon 9:26 PM EDT (11/3) 11:35 AM EDT (11/3)
Length of Visible Light 11h 15m
Length of Day
10h 17m
Waning Gibbous, 80% of the Moon is Illuminated
Nov 3
Waning Gibbous
Nov 6
Last Quarter
Nov 13
New
Nov 20
First Quarter
Nov 28
Full

Hourly Weather History & Observations

Time (EDT) Temp. Windchill Dew Point Humidity Pressure Visibility Wind Dir Wind Speed Gust Speed Precip Events Conditions
12:54 AM 39.9 °F 33.9 °F 32.0 °F 73% 29.75 in 10.0 mi West 9.2 mph - N/A   Mostly Cloudy
1:54 AM 41.0 °F 37.1 °F 32.0 °F 70% 29.75 in 10.0 mi NW 5.8 mph - N/A   Mostly Cloudy
2:54 AM 41.0 °F 35.8 °F 32.0 °F 70% 29.75 in 10.0 mi WNW 8.1 mph - N/A   Overcast
3:54 AM 39.9 °F 35.8 °F 32.0 °F 73% 29.75 in 10.0 mi West 5.8 mph - N/A   Overcast
4:54 AM 39.9 °F 35.1 °F 32.0 °F 73% 29.76 in 10.0 mi West 6.9 mph - N/A   Overcast
5:54 AM 39.9 °F 32.5 °F 32.0 °F 73% 29.77 in 10.0 mi WNW 12.7 mph - N/A   Overcast
6:54 AM 39.9 °F 36.7 °F 32.0 °F 73% 29.79 in 10.0 mi WNW 4.6 mph - N/A   Overcast
7:54 AM 39.9 °F 33.4 °F 32.0 °F 73% 29.81 in 10.0 mi WNW 10.4 mph - N/A   Scattered Clouds
8:54 AM 42.1 °F 38.4 °F 30.9 °F 65% 29.85 in 10.0 mi West 5.8 mph - N/A   Mostly Cloudy
9:54 AM 43.0 °F 35.4 °F 30.9 °F 62% 29.85 in 10.0 mi WNW 16.1 mph - N/A   Scattered Clouds
10:54 AM 46.9 °F - 30.0 °F 52% 29.85 in 10.0 mi NW 17.3 mph 25.3 mph N/A   Partly Cloudy
11:54 AM 46.9 °F - 30.9 °F 54% 29.85 in 10.0 mi NNW 12.7 mph 23.0 mph N/A   Partly Cloudy
12:54 PM 46.9 °F - 28.9 °F 50% 29.83 in 10.0 mi NNW 15.0 mph 23.0 mph N/A   Mostly Cloudy
1:54 PM 48.9 °F - 30.0 °F 48% 29.83 in 10.0 mi NNW 16.1 mph 23.0 mph N/A   Overcast
2:54 PM 48.9 °F - 30.0 °F 48% 29.83 in 10.0 mi NW 15.0 mph 21.9 mph N/A   Overcast
3:54 PM 46.9 °F - 28.0 °F 48% 29.85 in 10.0 mi WNW 17.3 mph 24.2 mph N/A   Mostly Cloudy
4:54 PM 46.0 °F 40.2 °F 28.0 °F 50% 29.87 in 10.0 mi NW 12.7 mph - N/A   Overcast
5:54 PM 44.1 °F 38.1 °F 27.0 °F 51% 29.88 in 10.0 mi NNW 11.5 mph - N/A   Scattered Clouds
6:54 PM 44.1 °F 37.4 °F 27.0 °F 51% 29.90 in 10.0 mi NNW 13.8 mph 23.0 mph N/A   Mostly Cloudy
7:54 PM 43.0 °F 36.8 °F 28.9 °F 58% 29.92 in 10.0 mi NW 11.5 mph 19.6 mph N/A   Overcast
8:54 PM 41.0 °F 35.2 °F 28.9 °F 62% 29.92 in 10.0 mi NW 9.2 mph - N/A   Partly Cloudy
9:54 PM 41.0 °F 35.2 °F 28.9 °F 62% 29.93 in 10.0 mi NW 9.2 mph - N/A   Overcast
10:54 PM 41.0 °F 37.1 °F 28.9 °F 62% 29.93 in 10.0 mi NW 5.8 mph - N/A   Scattered Clouds
11:54 PM 39.9 °F 32.9 °F 30.0 °F 68% 29.93 in 10.0 mi NW 11.5 mph - N/A   Clear